LGS2022 LFRS-EBBR

Flight info

Callsign LGS2022
Flight time N/A
Altitude 34000
Route ANG UL976 RONAX UN873 BAZOS DCT TULNI
Aircraft B738/M-SDE2E3FGHIRWXY/LB1

Departure

Time 2026-05-06 01:03
Airport Nantes Atlantique Airport (LFRS)

Arrival

Time N/A
Airport Brussels Airport (EBBR)
Time Latitude Longitude Altitude Speed Heading
2026-05-06 00:50 47.15861 -1.60285 89 ft 0 kts 117°
2026-05-06 00:54 47.15866 -1.60300 89 ft 4 kts 122°
2026-05-06 00:54 47.15883 -1.60330 91 ft 4 kts 143°
2026-05-06 00:54 47.15906 -1.60346 88 ft 4 kts 175°
2026-05-06 00:54 47.15926 -1.60342 91 ft 0 kts 208°
2026-05-06 00:58 47.15917 -1.60349 88 ft 4 kts 208°
2026-05-06 00:58 47.15865 -1.60387 88 ft 12 kts 206°
2026-05-06 00:58 47.15788 -1.60442 89 ft 12 kts 206°
2026-05-06 00:58 47.15713 -1.60498 91 ft 12 kts 207°
2026-05-06 00:59 47.15641 -1.60552 92 ft 12 kts 207°
2026-05-06 00:59 47.15570 -1.60607 92 ft 11 kts 208°
2026-05-06 00:59 47.15502 -1.60661 90 ft 11 kts 208°
2026-05-06 00:59 47.15436 -1.60714 89 ft 11 kts 208°
2026-05-06 01:00 47.15371 -1.60764 91 ft 10 kts 206°
2026-05-06 01:00 47.15308 -1.60811 90 ft 10 kts 206°
2026-05-06 01:00 47.15246 -1.60856 89 ft 10 kts 206°
2026-05-06 01:00 47.15186 -1.60900 89 ft 10 kts 207°
2026-05-06 01:01 47.15114 -1.60954 91 ft 13 kts 207°
2026-05-06 01:01 47.15035 -1.61012 90 ft 13 kts 208°
2026-05-06 01:01 47.14960 -1.61073 88 ft 12 kts 209°
2026-05-06 01:01 47.14887 -1.61133 89 ft 12 kts 209°
2026-05-06 01:02 47.14836 -1.61221 91 ft 12 kts 250°
2026-05-06 01:02 47.14818 -1.61334 89 ft 11 kts 274°
2026-05-06 01:02 47.14873 -1.61397 88 ft 11 kts 357°
2026-05-06 01:02 47.14948 -1.61360 86 ft 12 kts 28°
2026-05-06 01:03 47.15066 -1.61268 86 ft 37 kts 27°
2026-05-06 01:03 47.15518 -1.60920 88 ft 108 kts 27°
2026-05-06 01:03 47.16359 -1.60255 176 ft 157 kts 28°
2026-05-06 01:03 47.17251 -1.59297 873 ft 168 kts 52°
2026-05-06 01:04 47.17535 -1.57527 1521 ft 183 kts 90°
2026-05-06 01:04 47.17035 -1.55855 2554 ft 187 kts 128°
2026-05-06 01:04 47.16109 -1.54330 2913 ft 213 kts 126°
2026-05-06 01:04 47.15362 -1.52357 3129 ft 231 kts 105°
2026-05-06 01:05 47.15106 -1.50000 3566 ft 236 kts 92°
2026-05-06 01:05 47.14968 -1.47096 4232 ft 242 kts 92°
2026-05-06 01:05 47.14839 -1.44632 4920 ft 244 kts 93°
2026-05-06 01:05 47.14682 -1.42111 5622 ft 249 kts 94°
2026-05-06 01:06 47.14507 -1.39579 6451 ft 252 kts 95°
2026-05-06 01:06 47.14320 -1.36991 7158 ft 257 kts 95°
2026-05-06 01:06 47.14126 -1.34372 7920 ft 260 kts 96°
2026-05-06 01:06 47.14154 -1.31712 8619 ft 264 kts 74°
2026-05-06 01:07 47.15026 -1.29404 9362 ft 265 kts 45°
2026-05-06 01:07 47.16419 -1.27610 10062 ft 269 kts 37°
2026-05-06 01:07 47.17908 -1.25931 10789 ft 270 kts 36°
2026-05-06 01:07 47.19417 -1.24264 11523 ft 273 kts 36°
2026-05-06 01:08 47.20949 -1.22568 12234 ft 277 kts 36°
2026-05-06 01:08 47.22513 -1.20825 13022 ft 280 kts 36°
2026-05-06 01:08 47.24048 -1.19104 13788 ft 283 kts 36°
2026-05-06 01:08 47.25617 -1.17335 14521 ft 284 kts 37°
2026-05-06 01:09 47.27187 -1.15558 15299 ft 285 kts 37°
2026-05-06 01:09 47.28762 -1.13770 16061 ft 287 kts 37°
2026-05-06 01:09 47.30385 -1.11926 16439 ft 305 kts 37°
2026-05-06 01:09 47.32125 -1.09947 16654 ft 326 kts 37°
2026-05-06 01:10 47.33950 -1.07866 17176 ft 336 kts 37°
2026-05-06 01:10 47.35798 -1.05755 18032 ft 335 kts 37°
2026-05-06 01:10 47.37645 -1.03642 18718 ft 338 kts 37°
2026-05-06 01:10 47.39512 -1.01505 19375 ft 341 kts 37°
2026-05-06 01:11 47.41388 -0.99356 20074 ft 342 kts 37°
2026-05-06 01:11 47.43268 -0.97200 20799 ft 342 kts 37°
2026-05-06 01:11 47.44514 -0.95770 21263 ft 343 kts 37°
2026-05-06 01:11 47.46313 -0.93704 21899 ft 345 kts 37°
2026-05-06 01:12 47.48215 -0.91518 22570 ft 347 kts 37°
2026-05-06 01:12 47.50124 -0.89322 23222 ft 349 kts 37°
2026-05-06 01:12 47.52050 -0.87106 23776 ft 352 kts 38°
2026-05-06 01:12 47.53986 -0.84876 24283 ft 355 kts 38°
2026-05-06 01:13 47.55951 -0.82649 24775 ft 357 kts 37°
2026-05-06 01:13 47.57941 -0.80417 25277 ft 360 kts 37°
2026-05-06 01:13 47.59943 -0.78175 25778 ft 362 kts 37°
2026-05-06 01:13 47.61962 -0.75912 26249 ft 365 kts 38°
2026-05-06 01:14 47.66034 -0.71334 27206 ft 370 kts 38°
2026-05-06 01:14 47.68087 -0.69018 27684 ft 372 kts 38°
2026-05-06 01:14 47.70153 -0.66686 28126 ft 375 kts 38°
2026-05-06 01:15 47.72237 -0.64329 28564 ft 377 kts 39°
2026-05-06 01:15 47.74330 -0.61960 29006 ft 380 kts 39°
2026-05-06 01:15 47.76437 -0.59572 29440 ft 382 kts 39°
2026-05-06 01:15 47.78552 -0.57174 29853 ft 384 kts 39°
2026-05-06 01:16 47.80687 -0.54750 30191 ft 387 kts 39°
2026-05-06 01:16 47.82837 -0.52305 30454 ft 391 kts 39°
2026-05-06 01:16 47.85009 -0.49834 30706 ft 395 kts 39°
2026-05-06 01:16 47.87203 -0.47334 30984 ft 399 kts 39°
2026-05-06 01:17 47.89410 -0.44817 31267 ft 402 kts 39°
2026-05-06 01:17 47.91642 -0.42269 31521 ft 405 kts 39°
2026-05-06 01:17 47.93889 -0.39701 31765 ft 409 kts 38°
2026-05-06 01:17 47.96155 -0.37108 32022 ft 412 kts 38°
2026-05-06 01:18 47.98437 -0.34493 32270 ft 415 kts 38°
2026-05-06 01:18 48.00737 -0.31856 32516 ft 418 kts 38°
2026-05-06 01:18 48.03050 -0.29201 32773 ft 421 kts 38°
2026-05-06 01:18 48.05026 -0.26929 32989 ft 423 kts 39°
2026-05-06 01:19 48.07276 -0.23943 33237 ft 425 kts 47°
2026-05-06 01:19 48.09173 -0.20541 33464 ft 427 kts 52°
2026-05-06 01:19 48.10992 -0.17003 33635 ft 431 kts 53°
2026-05-06 01:19 48.12804 -0.13418 33846 ft 432 kts 53°
2026-05-06 01:20 48.16469 -0.06196 33888 ft 439 kts 53°
2026-05-06 01:20 48.20188 0.01051 33882 ft 437 kts 53°
2026-05-06 01:21 48.23882 0.08228 33891 ft 433 kts 53°
2026-05-06 01:21 48.27550 0.15371 33898 ft 432 kts 53°
2026-05-06 01:22 48.31213 0.22527 33900 ft 431 kts 53°
2026-05-06 01:22 48.34871 0.29692 33888 ft 433 kts 53°
2026-05-06 01:23 48.38536 0.36891 33905 ft 435 kts 53°
2026-05-06 01:23 48.42239 0.44112 33905 ft 437 kts 53°
2026-05-06 01:24 48.45947 0.51299 33894 ft 439 kts 53°
2026-05-06 01:24 48.49689 0.58586 33899 ft 440 kts 53°
2026-05-06 01:25 48.53772 0.65469 33883 ft 443 kts 40°
2026-05-06 01:25 48.58711 0.71054 33886 ft 445 kts 37°
2026-05-06 01:26 48.63703 0.76586 33892 ft 444 kts 38°
2026-05-06 01:26 48.68641 0.82189 33886 ft 444 kts 38°
2026-05-06 01:27 48.73561 0.87820 33884 ft 443 kts 38°
2026-05-06 01:27 48.78466 0.93452 33880 ft 442 kts 38°
2026-05-06 01:28 48.83357 0.99086 33889 ft 441 kts 38°
2026-05-06 01:28 48.88233 1.04719 33883 ft 440 kts 38°
2026-05-06 01:29 48.93097 1.10353 33878 ft 439 kts 38°
2026-05-06 01:29 48.97959 1.15996 33876 ft 439 kts 38°
2026-05-06 01:30 49.02808 1.21643 33884 ft 439 kts 39°
2026-05-06 01:30 49.07392 1.27925 33894 ft 449 kts 45°
2026-05-06 01:31 49.11900 1.34590 33890 ft 459 kts 45°
2026-05-06 01:31 49.16530 1.41373 33879 ft 461 kts 45°
2026-05-06 01:32 49.21175 1.48122 33870 ft 460 kts 45°
2026-05-06 01:32 49.25807 1.54866 33866 ft 459 kts 45°
2026-05-06 01:33 49.30430 1.61603 33871 ft 458 kts 45°
2026-05-06 01:33 49.35048 1.68337 33860 ft 458 kts 45°
2026-05-06 01:34 49.39654 1.75075 33860 ft 457 kts 45°
2026-05-06 01:34 49.44250 1.81820 33854 ft 457 kts 45°
2026-05-06 01:35 49.48835 1.88566 33861 ft 456 kts 45°
2026-05-06 01:35 49.53492 1.95211 33858 ft 457 kts 42°
2026-05-06 01:36 49.58405 2.01441 33859 ft 457 kts 40°
2026-05-06 01:36 49.63356 2.07594 33857 ft 457 kts 40°
2026-05-06 01:37 49.68278 2.13796 33854 ft 457 kts 41°
2026-05-06 01:37 49.73154 2.20010 33854 ft 457 kts 41°
2026-05-06 01:38 49.78043 2.26273 33849 ft 456 kts 41°
2026-05-06 01:38 49.82925 2.32545 33852 ft 456 kts 41°
2026-05-06 01:39 49.87806 2.38831 33857 ft 456 kts 41°
2026-05-06 01:39 49.92681 2.45124 33853 ft 456 kts 41°
2026-05-06 01:40 49.97548 2.51425 33857 ft 456 kts 41°
2026-05-06 01:40 50.02422 2.57750 33726 ft 458 kts 42°
2026-05-06 01:41 50.04882 2.60951 33017 ft 462 kts 41°
2026-05-06 01:41 50.07334 2.64145 32307 ft 458 kts 41°
2026-05-06 01:41 50.09770 2.67321 31559 ft 457 kts 41°
2026-05-06 01:41 50.12208 2.70504 30761 ft 457 kts 41°
2026-05-06 01:42 50.14646 2.73694 29952 ft 458 kts 41°
2026-05-06 01:42 50.17085 2.76890 28987 ft 458 kts 41°
2026-05-06 01:42 50.19519 2.80081 28060 ft 457 kts 41°
2026-05-06 01:42 50.21953 2.83278 27114 ft 457 kts 41°
2026-05-06 01:43 50.24384 2.86477 26130 ft 458 kts 41°
2026-05-06 01:43 50.26814 2.89678 25338 ft 455 kts 41°
2026-05-06 01:43 50.29192 2.92813 24639 ft 450 kts 41°
2026-05-06 01:43 50.31603 2.95996 23937 ft 446 kts 40°
2026-05-06 01:44 50.33930 2.99074 23210 ft 442 kts 40°
2026-05-06 01:44 50.36272 3.02175 22417 ft 439 kts 40°
2026-05-06 01:44 50.38591 3.05250 21702 ft 434 kts 40°
2026-05-06 01:44 50.40885 3.08296 20990 ft 429 kts 40°
2026-05-06 01:45 50.43153 3.11311 20299 ft 426 kts 40°
2026-05-06 01:45 50.45401 3.14304 19621 ft 422 kts 40°
2026-05-06 01:45 50.47629 3.17274 18946 ft 420 kts 40°
2026-05-06 01:45 50.49859 3.20249 18259 ft 420 kts 40°
2026-05-06 01:46 50.52081 3.23218 17483 ft 418 kts 40°
2026-05-06 01:46 50.54284 3.26165 16761 ft 413 kts 40°
2026-05-06 01:46 50.56376 3.29230 16054 ft 409 kts 49°
2026-05-06 01:46 50.58041 3.32836 15315 ft 406 kts 56°
2026-05-06 01:47 50.59583 3.36521 14645 ft 400 kts 56°
2026-05-06 01:47 50.61097 3.40156 13982 ft 395 kts 56°
2026-05-06 01:47 50.62606 3.43736 13267 ft 390 kts 55°
2026-05-06 01:47 50.64106 3.47250 12577 ft 384 kts 55°
2026-05-06 01:48 50.65597 3.50712 11921 ft 379 kts 55°
2026-05-06 01:48 50.67070 3.54119 11289 ft 374 kts 54°
2026-05-06 01:48 50.68510 3.57451 11091 ft 359 kts 54°
2026-05-06 01:48 50.69884 3.60631 10917 ft 344 kts 54°
2026-05-06 01:49 50.71206 3.63690 10771 ft 330 kts 54°
2026-05-06 01:49 50.72472 3.66627 10634 ft 318 kts 54°